Change the Weather History Date:

Tuesday, September 24, 2013

  Actual Average Record
Temperature  
Mean Temperature 58 °F -  
Max Temperature 62 °F 60 °F 66 °F (2007)
Min Temperature 55 °F 49 °F 46 °F (1999)
Degree Days  
Heating Degree Days 6    
Growing Degree Days 8 (Base 50)    
Moisture  
Dew Point 55 °F    
Average Humidity 92    
Maximum Humidity 100    
Minimum Humidity 82    
Precipitation  
Precipitation 0.00 in - - ()
Sea Level Pressure  
Sea Level Pressure 29.67 in    
Wind  
Wind Speed 12 mph ()    
Max Wind Speed 31 mph    
Max Gust Speed 43 mph    
Visibility 5.7 miles    
Events Rain    
Averages and records for this station are not official NWS values.
T = Trace of Precipitation, MM = Missing Value Source: Averaged Metar Reports

Daily Weather History Graph

Daily Weather History Graph

Search for Another Location

Airport or City:

Trip Planner

Search our weather history database for the weather conditions in past years. The results will help you decide how hot, cold, wet, or windy it might be!

Date:

Astronomy

Sep. 24, 2013 Rise Set
Actual Time 6:07 AM NZST 6:18 PM NZST
Civil Twilight 5:41 AM NZST 6:44 PM NZST
Nautical Twilight 5:11 AM NZST 7:15 PM NZST
Astronomical Twilight 4:40 AM NZST 7:45 PM NZST
Moon 11:06 PM NZST (9/24) 8:43 AM NZST (9/24)
Length of Visible Light 13h 02m
Length of Day
12h 10m
Waning Gibbous, 79% of the Moon is Illuminated
Sep 24
Waning Gibbous
Sep 27
Last Quarter
Oct 5
New
Oct 12
First Quarter
Oct 19
Full

Hourly Weather History & Observations

Time (NZST) Temp. Dew Point Humidity Pressure Visibility Wind Dir Wind Speed Gust Speed Precip Events Conditions
12:00 AM 57.2 °F 53.6 °F 88% 30.01 in 6.2 mi ESE 6.9 mph - N/A   Overcast
12:30 AM 57.2 °F 53.6 °F 88% 30.01 in 6.2 mi SE 5.8 mph - N/A   Mostly Cloudy
1:00 AM 57.2 °F 53.6 °F 88% 30.01 in 6.2 mi SE 4.6 mph - N/A   Mostly Cloudy
1:30 AM 57.2 °F 53.6 °F 88% 30.01 in 6.2 mi SSE 4.6 mph - N/A   Overcast
2:00 AM 57.2 °F 53.6 °F 88% 30.01 in 6.2 mi South 5.8 mph - N/A   Overcast
2:30 AM 57.2 °F 53.6 °F 88% 29.98 in 6.2 mi SSE 6.9 mph - N/A   Overcast
3:00 AM 57.2 °F 53.6 °F 88% 29.98 in 6.2 mi SSE 6.9 mph - N/A   Overcast
3:30 AM 55.4 °F 53.6 °F 94% 29.95 in 6.2 mi SSE 8.1 mph - N/A   Overcast
4:00 AM 55.4 °F 53.6 °F 94% 29.95 in 6.2 mi SSE 6.9 mph - N/A   Overcast
4:30 AM 55.4 °F 53.6 °F 94% 29.95 in 6.2 mi SSE 10.4 mph - N/A   Overcast
5:00 AM 55.4 °F 53.6 °F 94% 29.92 in 6.2 mi SE 11.5 mph - N/A   Overcast
5:30 AM 55.4 °F 53.6 °F 94% 29.92 in 6.2 mi SSE 10.4 mph - N/A   Overcast
6:00 AM 55.4 °F 53.6 °F 94% 29.92 in 6.2 mi SSE 9.2 mph - N/A   Overcast
6:30 AM 55.4 °F 53.6 °F 94% 29.92 in 6.2 mi SSE 6.9 mph - N/A   Overcast
7:00 AM 55.4 °F 53.6 °F 94% 29.92 in 6.2 mi SSE 6.9 mph - N/A   Overcast
7:30 AM 57.2 °F 53.6 °F 88% 29.92 in 6.2 mi SE 8.1 mph - N/A   Mostly Cloudy
8:00 AM 57.2 °F 53.6 °F 88% 29.89 in 6.2 mi SE 6.9 mph - N/A   Overcast
8:30 AM 57.2 °F 53.6 °F 88% 29.89 in 6.2 mi SE 6.9 mph - N/A   Mostly Cloudy
9:00 AM 57.2 °F 55.4 °F 94% 29.89 in 6.2 mi SSE 5.8 mph - N/A   Overcast
9:30 AM 59.0 °F 53.6 °F 82% 29.86 in 6.2 mi SE 8.1 mph - N/A Rain Light Rain Showers
10:00 AM 59.0 °F 53.6 °F 82% 29.83 in 6.2 mi SE 9.2 mph - N/A   Drizzle
10:30 AM 59.0 °F 53.6 °F 82% 29.83 in 6.2 mi SE 11.5 mph - N/A Rain Light Rain Showers
11:00 AM 57.2 °F 53.6 °F 88% 29.80 in 6.2 mi SE 19.6 mph - N/A Rain Light Rain
11:30 AM 57.2 °F 55.4 °F 94% 29.77 in 6.2 mi SE 18.4 mph - N/A Rain Light Rain
12:00 PM 57.2 °F 53.6 °F 88% 29.74 in 6.2 mi SE 21.9 mph - N/A Rain Light Rain
12:30 PM 55.4 °F 53.6 °F 94% 29.71 in 6.2 mi SSE 17.3 mph - N/A Rain Light Rain
1:00 PM 57.2 °F 55.4 °F 94% 29.68 in 5.0 mi SSE 19.6 mph - N/A Rain Rain
1:30 PM 57.2 °F 55.4 °F 94% 29.65 in 6.2 mi SSE 19.6 mph - N/A Rain Light Rain
2:00 PM 57.2 °F 55.4 °F 94% 29.62 in 6.2 mi SSE 19.6 mph - N/A Rain Light Rain
2:30 PM 57.2 °F 55.4 °F 94% 29.59 in 5.6 mi SSE 20.7 mph - N/A Rain Rain
3:00 PM 57.2 °F 55.4 °F 94% 29.59 in 5.0 mi SSE 20.7 mph - N/A Rain Rain
3:30 PM 57.2 °F 55.4 °F 94% 29.56 in 5.6 mi SSE 19.6 mph - N/A Rain Rain
4:00 PM 57.2 °F 55.4 °F 94% 29.53 in 5.6 mi SSE 20.7 mph - N/A Rain Light Rain
4:30 PM 57.2 °F 55.4 °F 94% 29.50 in 6.2 mi SSE 19.6 mph - N/A Rain Light Rain
5:00 PM 57.2 °F 55.4 °F 94% 29.47 in 5.0 mi SSE 21.9 mph - N/A Rain Light Rain
5:30 PM 57.2 °F 55.4 °F 94% 29.44 in 5.0 mi South 23.0 mph - N/A Rain Light Rain Showers
6:00 PM 55.4 °F 55.4 °F 100% 29.39 in 5.0 mi South 25.3 mph - N/A Rain Light Rain Showers
6:30 PM 55.4 °F 55.4 °F 100% 29.36 in 5.0 mi South 26.5 mph - N/A Rain Light Rain
7:00 PM 55.4 °F 55.4 °F 100% 29.33 in - SSE 28.8 mph - N/A Rain Heavy Rain
7:30 PM 55.4 °F 55.4 °F 100% 29.30 in 3.1 mi SSE 27.6 mph 40.3 mph N/A Rain Light Rain Showers
8:00 PM 55.4 °F 55.4 °F 100% 29.27 in 3.1 mi SSE 24.2 mph - N/A Rain Light Rain Showers
8:30 PM 59.0 °F 57.2 °F 94% 29.24 in - SE 31.1 mph 42.6 mph N/A Rain Light Rain
9:00 PM 59.0 °F 57.2 °F 94% 29.21 in 4.3 mi SE 31.1 mph - N/A   Drizzle
9:30 PM 59.0 °F 57.2 °F 94% 29.18 in 6.2 mi SE 31.1 mph - N/A Rain Light Rain Showers
10:00 PM 60.8 °F 59.0 °F 94% 29.18 in 3.7 mi ESE 28.8 mph - N/A Rain Light Rain
10:30 PM 62.6 °F 59.0 °F 88% 29.15 in 3.1 mi East 21.9 mph 36.8 mph N/A   Drizzle
11:00 PM 60.8 °F 59.0 °F 94% 29.15 in - East 26.5 mph - N/A   Heavy Drizzle
11:30 PM 60.8 °F 59.0 °F 94% 29.15 in - East 26.5 mph 41.4 mph N/A Rain Light Rain